Chipley, FL

8:18 PM CDT on April 23, 2018 (GMT -0500)
Chipley

Weather History for KVSH - June, 2013

Change the Weather History Date:

Friday, June 14, 2013

  Actual Average (KDHN) Record (KDHN)
Temperature  
Mean Temperature 88 °F -  
Max Temperature 95 °F 88 °F 101 °F (1952)
Min Temperature 80 °F 71 °F 63 °F (1960)
Cooling Degree Days 22    
Growing Degree Days 38 (Base 50)    
Moisture  
Dew Point 73 °F    
Average Humidity 65    
Maximum Humidity 84    
Minimum Humidity 49    
Precipitation  
Precipitation 0.00 in - - ()
Sea Level Pressure  
Sea Level Pressure 29.92 in    
Wind  
Wind Speed 5 mph (NW)    
Max Wind Speed 12 mph    
Max Gust Speed 17 mph    
Visibility 10 miles    
Events      
Averages and records for this station are not official NWS values.
T = Trace of Precipitation, MM = Missing Value Source: NWS Daily Summary

Daily Weather History Graph

Daily Weather History Graph

Search for Another Location

Airport or City:

Astronomy

Jun. 14, 2013 Rise Set
Actual Time 5:38 AM CDT 7:46 PM CDT
Civil Twilight 5:11 AM CDT 8:14 PM CDT
Nautical Twilight 4:37 AM CDT 8:48 PM CDT
Astronomical Twilight 4:01 AM CDT 9:24 PM CDT
Moon 10:54 AM CDT (6/14) 11:43 PM CDT (6/14)
Length of Visible Light 15h 03m
Length of Day
14h 07m
Waxing Crescent, 30% of the Moon is Illuminated
Jun 14
Waxing Crescent
Jun 16
First Quarter
Jun 23
Full
Jun 29
Last Quarter
Jul 8
New

Hourly Weather History & Observations

Time (CDT) Temp. Heat Index Dew Point Humidity Pressure Visibility Wind Dir Wind Speed Gust Speed Precip Events Conditions
12:15 AM 82.4 °F 89.5 °F 75.2 °F 79% 29.93 in 10.0 mi WSW 5.8 mph - N/A   Clear
12:35 AM 82.4 °F 89.5 °F 75.2 °F 79% 29.93 in 10.0 mi WSW 3.5 mph - N/A   Clear
12:55 AM 82.4 °F 89.5 °F 75.2 °F 79% 29.94 in 10.0 mi Calm Calm - N/A   Clear
1:15 AM 82.4 °F 89.5 °F 75.2 °F 79% 29.96 in 10.0 mi West 3.5 mph - N/A   Clear
1:35 AM 82.4 °F 89.5 °F 75.2 °F 79% 29.95 in 10.0 mi West 4.6 mph - N/A   Clear
1:55 AM 82.4 °F 89.5 °F 75.2 °F 79% 29.95 in 10.0 mi WSW 3.5 mph - N/A   Clear
2:15 AM 82.4 °F 89.5 °F 75.2 °F 79% 29.94 in 10.0 mi Calm Calm - N/A   Clear
2:35 AM 82.4 °F 89.5 °F 75.2 °F 79% 29.94 in 10.0 mi Calm Calm - N/A   Clear
2:55 AM 80.6 °F 86.2 °F 75.2 °F 84% 29.93 in 10.0 mi West 4.6 mph - N/A   Clear
3:15 AM 82.4 °F 89.5 °F 75.2 °F 79% 29.93 in 10.0 mi WSW 3.5 mph - N/A   Clear
3:35 AM 80.6 °F 86.2 °F 75.2 °F 84% 29.93 in 10.0 mi SW 3.5 mph - N/A   Clear
3:55 AM 80.6 °F 86.2 °F 75.2 °F 84% 29.93 in 10.0 mi WSW 4.6 mph - N/A   Clear
4:15 AM 80.6 °F 86.2 °F 75.2 °F 84% 29.93 in 10.0 mi WSW 3.5 mph - N/A   Clear
4:35 AM 80.6 °F 86.2 °F 75.2 °F 84% 29.92 in 10.0 mi WSW 3.5 mph - N/A   Clear
4:55 AM 80.6 °F 86.2 °F 75.2 °F 84% 29.91 in 10.0 mi SW 4.6 mph - N/A   Clear
5:15 AM 80.6 °F 85.4 °F 73.4 °F 79% 29.91 in 10.0 mi WSW 3.5 mph - N/A   Clear
5:35 AM 80.6 °F 85.4 °F 73.4 °F 79% 29.91 in 10.0 mi SW 6.9 mph - N/A   Clear
5:55 AM 80.6 °F 85.4 °F 73.4 °F 79% 29.92 in 10.0 mi WSW 4.6 mph - N/A   Clear
6:15 AM 80.6 °F 85.4 °F 73.4 °F 79% 29.93 in 10.0 mi West 3.5 mph - N/A   Clear
6:35 AM 80.6 °F 85.4 °F 73.4 °F 79% 29.93 in 10.0 mi WSW 3.5 mph - N/A   Clear
6:55 AM 80.6 °F 85.4 °F 73.4 °F 79% 29.94 in 10.0 mi West 5.8 mph - N/A   Partly Cloudy
7:15 AM 80.6 °F 85.4 °F 73.4 °F 79% 29.95 in 10.0 mi West 3.5 mph - N/A   Scattered Clouds
7:35 AM 82.4 °F 88.2 °F 73.4 °F 74% 29.96 in 10.0 mi WSW 3.5 mph - N/A   Overcast
7:55 AM 82.4 °F 89.5 °F 75.2 °F 79% 29.96 in 10.0 mi WSW 3.5 mph - N/A   Scattered Clouds
8:15 AM 84.2 °F 92.3 °F 75.2 °F 74% 29.95 in 10.0 mi West 4.6 mph - N/A   Clear
8:35 AM 84.2 °F 92.3 °F 75.2 °F 74% 29.95 in 10.0 mi NW 5.8 mph - N/A   Clear
8:55 AM 84.2 °F 90.9 °F 73.4 °F 70% 29.95 in 10.0 mi WNW 5.8 mph - N/A   Clear
9:15 AM 84.2 °F 90.9 °F 73.4 °F 70% 29.95 in 10.0 mi NW 5.8 mph - N/A   Partly Cloudy
9:35 AM 84.2 °F 90.9 °F 73.4 °F 70% 29.95 in 10.0 mi WNW 8.1 mph - N/A   Scattered Clouds
9:55 AM 87.8 °F 97.6 °F 75.2 °F 66% 29.94 in 10.0 mi WNW 8.1 mph - N/A   Clear
10:15 AM 89.6 °F 98.2 °F 73.4 °F 59% 29.94 in 10.0 mi NW 6.9 mph - N/A   Clear
10:35 AM 87.8 °F 97.6 °F 75.2 °F 66% 29.94 in 10.0 mi WNW 8.1 mph - N/A   Mostly Cloudy
10:55 AM 89.6 °F 99.8 °F 75.2 °F 62% 29.94 in 10.0 mi NW 6.9 mph - N/A   Scattered Clouds
11:15 AM 87.8 °F 97.6 °F 75.2 °F 66% 29.94 in 10.0 mi NW 5.8 mph - N/A   Clear
11:35 AM 89.6 °F 99.8 °F 75.2 °F 62% 29.93 in 10.0 mi NW 10.4 mph 16.1 mph N/A   Clear
11:55 AM 89.6 °F 99.8 °F 75.2 °F 62% 29.93 in 10.0 mi NNW 6.9 mph - N/A   Clear
12:15 PM 89.6 °F 99.8 °F 75.2 °F 62% 29.93 in 10.0 mi West 6.9 mph - N/A   Clear
12:35 PM 91.4 °F 102.5 °F 75.2 °F 59% 29.92 in 10.0 mi NW 4.6 mph - N/A   Clear
12:55 PM 93.2 °F 105.0 °F 75.2 °F 56% 29.92 in 10.0 mi North 5.8 mph - N/A   Clear
1:15 PM 91.4 °F 102.5 °F 75.2 °F 59% 29.92 in 10.0 mi NW 8.1 mph 16.1 mph N/A   Clear
1:35 PM 93.2 °F 105.0 °F 75.2 °F 56% 29.91 in 10.0 mi North 8.1 mph - N/A   Partly Cloudy
1:55 PM 93.2 °F 105.0 °F 75.2 °F 56% 29.90 in 10.0 mi North 9.2 mph - N/A   Partly Cloudy
2:15 PM 93.2 °F 105.0 °F 75.2 °F 56% 29.90 in 10.0 mi NNW 8.1 mph - N/A   Partly Cloudy
2:35 PM 93.2 °F 105.0 °F 75.2 °F 56% 29.90 in 10.0 mi North 8.1 mph - N/A   Partly Cloudy
2:55 PM 95.0 °F 107.4 °F 75.2 °F 53% 29.90 in 10.0 mi NNW 6.9 mph - N/A   Partly Cloudy
3:15 PM 93.2 °F 105.0 °F 75.2 °F 56% 29.89 in 10.0 mi North 5.8 mph - N/A   Clear
3:35 PM 95.0 °F 104.5 °F 73.4 °F 49% 29.89 in 10.0 mi North 5.8 mph - N/A   Clear
3:55 PM 95.0 °F 104.5 °F 73.4 °F 49% 29.88 in 10.0 mi North 6.9 mph - N/A   Clear
4:15 PM 95.0 °F 104.5 °F 73.4 °F 49% 29.88 in 10.0 mi NW 5.8 mph - N/A   Clear
4:35 PM 95.0 °F 104.5 °F 73.4 °F 49% 29.87 in 10.0 mi NNE 8.1 mph - N/A   Clear
4:55 PM 95.0 °F 104.5 °F 73.4 °F 49% 29.87 in 10.0 mi NW 6.9 mph - N/A   Clear
5:15 PM 95.0 °F 104.5 °F 73.4 °F 49% 29.86 in 10.0 mi NNW 8.1 mph - N/A   Clear
5:35 PM 93.2 °F 102.4 °F 73.4 °F 52% 29.87 in 10.0 mi North 6.9 mph - N/A   Clear
5:55 PM 93.2 °F 102.4 °F 73.4 °F 52% 29.86 in 10.0 mi NNE 11.5 mph 17.3 mph N/A   Partly Cloudy
6:15 PM 93.2 °F 102.4 °F 73.4 °F 52% 29.87 in 10.0 mi North 5.8 mph 16.1 mph N/A   Scattered Clouds
6:35 PM 93.2 °F 102.4 °F 73.4 °F 52% 29.88 in 10.0 mi NNE 6.9 mph - N/A   Scattered Clouds
6:55 PM 93.2 °F 100.5 °F 71.6 °F 49% 29.88 in 10.0 mi North 5.8 mph 16.1 mph N/A   Partly Cloudy
7:15 PM 91.4 °F 98.4 °F 71.6 °F 52% 29.88 in 10.0 mi North 6.9 mph - N/A   Clear
7:35 PM 91.4 °F 98.4 °F 71.6 °F 52% 29.89 in 10.0 mi NNE 8.1 mph - N/A   Clear
7:55 PM 91.4 °F 98.4 °F 71.6 °F 52% 29.89 in 10.0 mi NNE 8.1 mph - N/A   Clear
8:15 PM 89.6 °F 96.2 °F 71.6 °F 55% 29.89 in 10.0 mi NNE 5.8 mph - N/A   Clear
8:35 PM 89.6 °F 93.4 °F 68.0 °F 49% 29.90 in 10.0 mi North 9.2 mph - N/A   Clear
8:55 PM 89.6 °F 94.7 °F 69.8 °F 52% 29.90 in 10.0 mi North 5.8 mph - N/A   Clear
9:15 PM 87.8 °F 92.6 °F 69.8 °F 55% 29.91 in 10.0 mi NNE 8.1 mph - N/A   Clear
9:35 PM 87.8 °F 92.6 °F 69.8 °F 55% 29.92 in 10.0 mi North 5.8 mph - N/A   Clear
9:55 PM 87.8 °F 92.6 °F 69.8 °F 55% 29.93 in 10.0 mi NNE 6.9 mph - N/A   Clear
10:15 PM 87.8 °F 92.6 °F 69.8 °F 55% 29.93 in 10.0 mi NNE 8.1 mph - N/A   Clear
10:35 PM 86.0 °F 90.4 °F 69.8 °F 58% 29.95 in 10.0 mi NNE 5.8 mph - N/A   Clear
10:55 PM 86.0 °F 90.4 °F 69.8 °F 58% 29.94 in 10.0 mi NE 6.9 mph - N/A   Clear
11:15 PM 84.2 °F 87.3 °F 68.0 °F 58% 29.94 in 10.0 mi NE 5.8 mph - N/A   Clear
11:35 PM 84.2 °F 87.3 °F 68.0 °F 58% 29.94 in 10.0 mi NE 6.9 mph - N/A   Clear
11:55 PM 84.2 °F 87.3 °F 68.0 °F 58% 29.95 in 10.0 mi NE 4.6 mph - N/A   Mostly Cloudy